Location: Laverne
(36.7100°N, 99.8930°W)
Time: 04:19:17
(UTC-06:00)

NOSS 3-1 (A) - Pass Details

Date: 19 October 2017
Orbit: 821 x 1391 km, 63.4° (Epoch: 17 November)

Event Time Altitude Azimuth Distance (km) Brightness Sun altitude
Exits shadow 07:01:34 - 237° (WSW) 2,804 5.4 -10.6°
Reaches altitude 10° 07:02:29 10° 241° (WSW) 2,483 5.1 -10.4°
Maximum altitude 07:07:51 41° 311° (NW) 1,304 3.8 -9.4°
Drops below altitude 10° 07:13:51 10° 20° (NNE) 2,774 6.1 -8.2°
Sets 07:16:48 0° 28° (NNE) 3,820 6.9 -7.6°
